Yeovilton, United Kingdom

4:04 AM BST on June 25, 2018 (GMT +0100)
Yeovil Radar Navy

Weather History for EGDY - October, 2017

Change the Weather History Date:

Thursday, October 12, 2017

  Actual Average Record
Temperature  
Mean Temperature 56 °F -  
Max Temperature 62 °F 54 °F 71 °F (2008)
Min Temperature 49 °F 42 °F 33 °F (1999)
Degree Days  
Heating Degree Days 10    
Growing Degree Days 6 (Base 50)    
Moisture  
Dew Point 49 °F    
Average Humidity 78    
Maximum Humidity 94    
Minimum Humidity 54    
Precipitation  
Precipitation 0.00 in - - ()
Sea Level Pressure  
Sea Level Pressure 30.11 in    
Wind  
Wind Speed 8 mph ()    
Max Wind Speed 15 mph    
Max Gust Speed -    
Visibility 8.9 miles    
Events      
Averages and records for this station are not official NWS values.
T = Trace of Precipitation, MM = Missing Value Source: Averaged Metar Reports

Daily Weather History Graph

Daily Weather History Graph

Search for Another Location

Airport or City:

Astronomy

Oct. 12, 2017 Rise Set
Actual Time 7:28 AM BST 6:24 PM BST
Civil Twilight 6:55 AM BST 6:57 PM BST
Nautical Twilight 6:17 AM BST 7:35 PM BST
Astronomical Twilight 5:39 AM BST 8:13 PM BST
Moon 11:53 PM BST (10/12) 2:50 PM BST (10/12)
Length of Visible Light 12h 01m
Length of Day
10h 55m
Waning Gibbous, 51% of the Moon is Illuminated
Oct 12
Waning Gibbous
Oct 12
Last Quarter
Oct 19
New
Oct 27
First Quarter
Nov 4
Full

Hourly Weather History & Observations

Time (BST) Temp. Dew Point Humidity Pressure Visibility Wind Dir Wind Speed Gust Speed Precip Events Conditions
12:00 AM 50 °F 48 °F 89% 29.99 in 7 mi SW 5.8 mph - -  
12:50 AM 51.8 °F 48.2 °F 88% 29.98 in 6.2 mi WSW 10.4 mph - N/A   Unknown
1:00 AM 52 °F 48 °F 83% 30.00 in 9 mi WSW 10.4 mph - -  
1:50 AM 51.8 °F 48.2 °F 88% 30.01 in 6.2 mi WSW 6.9 mph - N/A   Unknown
2:00 AM 51 °F 48 °F 86% 30.02 in 9 mi WSW 6.9 mph - -  
2:50 AM 50.0 °F 48.2 °F 94% 30.04 in - SW 6.9 mph - N/A   Clear
3:00 AM 51 °F 48 °F 85% 30.04 in 16 mi SW 6.9 mph - -  
3:50 AM 51.8 °F 48.2 °F 88% 30.04 in - SW 6.9 mph - N/A   Clear
4:00 AM 51 °F 48 °F 87% 30.04 in 9 mi SW 6.9 mph - -  
4:50 AM 51.8 °F 48.2 °F 88% 30.04 in - SW 6.9 mph - N/A   Clear
5:00 AM 52 °F 48 °F 82% 30.05 in 12 mi SW 6.9 mph - -  
5:50 AM 51.8 °F 48.2 °F 88% 30.06 in - WSW 6.9 mph - N/A   Clear
6:00 AM 51 °F 48 °F 85% 30.07 in 12 mi WSW 6.9 mph - -  
6:50 AM 51.8 °F 48.2 °F 88% 30.09 in - SW 8.1 mph - N/A   Clear
7:00 AM 52 °F 48 °F 80% 30.09 in 12 mi SW 8.1 mph - -   Scattered Clouds
7:50 AM 51.8 °F 48.2 °F 88% 30.09 in 6.2 mi WSW 5.8 mph - N/A   Partly Cloudy
8:00 AM 51 °F 48 °F 85% 30.12 in 9 mi WSW 5.8 mph - -   Scattered Clouds
8:50 AM 53.6 °F 50.0 °F 88% 30.12 in 6.2 mi SSW 10.4 mph - N/A   Partly Cloudy
9:00 AM 53 °F 49 °F 82% 30.14 in 9 mi SSW 10.4 mph - -   Scattered Clouds
9:50 AM 57.2 °F 50.0 °F 77% 30.15 in 6.2 mi SW 8.1 mph - N/A   Partly Cloudy
10:00 AM 57 °F 51 °F 72% 30.15 in 9 mi SW 8.1 mph - -   Scattered Clouds
10:50 AM 59.0 °F 51.8 °F 77% 30.15 in 6.2 mi SW 8.1 mph - N/A   Partly Cloudy
11:00 AM 59 °F 52 °F 71% 30.17 in 9 mi SW 8.1 mph - -   Scattered Clouds
11:50 AM 60.8 °F 48.2 °F 63% 30.18 in 6.2 mi SW 11.5 mph - N/A   Mostly Cloudy
12:00 PM 60 °F 48 °F 56% 30.18 in 12 mi SW 11.5 mph - -   Mostly Cloudy
12:50 PM 60.8 °F 48.2 °F 63% 30.15 in 6.2 mi SSW 11.5 mph - N/A   Scattered Clouds
1:00 PM 61 °F 49 °F 54% 30.18 in 12 mi SSW 11.5 mph - -   Partly Cloudy
1:50 PM 60.8 °F 48.2 °F 63% 30.15 in 6.2 mi SW 8.1 mph - N/A   Mostly Cloudy
2:50 PM 60.8 °F 48.2 °F 63% 30.15 in 6.2 mi SSW 13.8 mph - N/A   Scattered Clouds
3:00 PM 60 °F 49 °F 57% 30.17 in 16 mi SSW 13.8 mph - -   Partly Cloudy
3:50 PM 60.8 °F 50.0 °F 68% 30.15 in 6.2 mi SSW 15.0 mph - N/A   Scattered Clouds
4:00 PM 61 °F 49 °F 56% 30.16 in 12 mi SSW 15.0 mph - -   Partly Cloudy
4:50 PM 60.8 °F 50.0 °F 68% 30.15 in 6.2 mi SSW 13.8 mph - N/A   Partly Cloudy
5:00 PM 60 °F 50 °F 61% 30.15 in 12 mi SSW 13.8 mph - -   Scattered Clouds
5:50 PM 57.2 °F 50.0 °F 77% 30.15 in 6.2 mi SSW 11.5 mph - N/A   Partly Cloudy
6:00 PM 58 °F 50 °F 67% 30.16 in 12 mi SSW 11.5 mph - -   Scattered Clouds
6:50 PM 55.4 °F 50.0 °F 82% 30.15 in - SSW 9.2 mph - N/A   Clear
7:00 PM 55 °F 51 °F 80% 30.17 in 12 mi SSW 9.2 mph - -   Clear
7:50 PM 53.6 °F 50.0 °F 88% 30.15 in - South 8.1 mph - N/A   Clear
8:00 PM 54 °F 51 °F 85% 30.17 in 12 mi South 8.1 mph - -   Clear
8:50 PM 51.8 °F 50.0 °F 94% 30.15 in 6.2 mi SE 2.3 mph - N/A   Partly Cloudy
9:00 PM 52 °F 49 °F 88% 30.17 in 12 mi SE 2.3 mph - -   Scattered Clouds
9:50 PM 57.2 °F 51.8 °F 82% 30.15 in 6.2 mi SSW 11.5 mph - N/A   Mostly Cloudy
10:50 PM 57.2 °F 53.6 °F 88% 30.15 in 6.2 mi South 8.1 mph - N/A   Partly Cloudy
11:50 PM 59.0 °F 55.4 °F 88% 30.15 in 6.2 mi SSW 8.1 mph - N/A   Mostly Cloudy